Year,Month,Day,Hour,Minute,Value (Times are PST for insolation in W/m^2)
2008,08,09,00,00,0.00
2008,08,09,00,01,0.00
2008,08,09,00,02,0.00
2008,08,09,00,03,0.00
2008,08,09,00,04,0.00
2008,08,09,00,05,0.00
2008,08,09,00,06,0.00
2008,08,09,00,07,0.00
2008,08,09,00,08,0.00
2008,08,09,00,09,0.00
2008,08,09,00,10,0.00
2008,08,09,00,11,0.00
2008,08,09,00,12,0.00
2008,08,09,01,02,0.00
2008,08,09,01,03,0.00
2008,08,09,01,04,0.00
2008,08,09,01,05,0.00
2008,08,09,01,06,0.00
2008,08,09,01,07,0.00
2008,08,09,01,08,0.00
2008,08,09,01,09,0.00
2008,08,09,01,10,0.00
2008,08,09,01,11,0.00
2008,08,09,01,12,0.00
2008,08,09,01,13,0.00
2008,08,09,01,14,0.00
2008,08,09,01,15,0.00
2008,08,09,01,16,0.00
2008,08,09,01,17,0.00
2008,08,09,01,18,0.00
2008,08,09,01,19,0.00
2008,08,09,01,20,0.00
2008,08,09,01,21,0.00
2008,08,09,01,22,0.00
2008,08,09,01,23,0.00
2008,08,09,01,24,0.00
2008,08,09,01,25,0.00
2008,08,09,01,26,0.00
2008,08,09,01,27,0.00
2008,08,09,01,28,0.00
2008,08,09,01,29,0.00
2008,08,09,01,30,0.00
2008,08,09,01,31,0.00
2008,08,09,01,32,0.00
2008,08,09,01,33,0.00
2008,08,09,01,34,0.00
2008,08,09,01,35,0.00
2008,08,09,01,36,0.00
2008,08,09,01,37,0.00
2008,08,09,01,38,0.00
2008,08,09,01,39,0.00
2008,08,09,01,40,0.00
2008,08,09,01,41,0.00
2008,08,09,01,42,0.00
2008,08,09,01,43,0.00
2008,08,09,01,44,0.00
2008,08,09,01,45,0.00
2008,08,09,01,46,0.00
2008,08,09,01,47,0.00
2008,08,09,01,48,0.00
2008,08,09,01,49,0.00
2008,08,09,01,50,0.00
2008,08,09,01,51,0.00
2008,08,09,01,52,0.00
2008,08,09,01,53,0.00
2008,08,09,01,54,0.00
2008,08,09,01,55,0.00
2008,08,09,01,56,0.00
2008,08,09,01,57,0.00
2008,08,09,01,58,0.00
2008,08,09,01,59,0.00
2008,08,09,02,00,0.00
2008,08,09,02,01,0.00
2008,08,09,02,02,0.00
2008,08,09,02,03,0.00
2008,08,09,02,04,0.00
2008,08,09,02,05,0.00
2008,08,09,02,06,0.00
2008,08,09,02,07,0.00
2008,08,09,02,08,0.00
2008,08,09,02,09,0.00
2008,08,09,02,10,0.00
2008,08,09,02,11,0.00
2008,08,09,02,12,0.00
2008,08,09,02,13,0.00
2008,08,09,02,14,0.00
2008,08,09,02,15,0.00
2008,08,09,02,16,0.00
2008,08,09,02,17,0.00
2008,08,09,02,18,0.00
2008,08,09,02,19,0.00
2008,08,09,02,20,0.00
2008,08,09,02,21,0.00
2008,08,09,02,22,0.00
2008,08,09,02,23,0.00
2008,08,09,02,24,0.00
2008,08,09,02,25,0.00
2008,08,09,02,26,0.00
2008,08,09,02,27,0.00
2008,08,09,02,28,0.00
2008,08,09,02,29,0.00
2008,08,09,02,30,0.00
2008,08,09,02,31,0.00
2008,08,09,02,32,0.00
2008,08,09,02,33,0.00
2008,08,09,02,34,0.00
2008,08,09,02,35,0.00
2008,08,09,02,36,0.00
2008,08,09,02,37,0.00
2008,08,09,02,38,0.00
2008,08,09,02,39,0.00
2008,08,09,02,40,0.00
2008,08,09,02,41,0.00
2008,08,09,02,42,0.00
2008,08,09,02,43,0.00
2008,08,09,02,44,0.00
2008,08,09,02,45,0.00
2008,08,09,02,46,0.00
2008,08,09,02,47,0.00
2008,08,09,02,48,0.00
2008,08,09,02,49,0.00
2008,08,09,02,50,0.00
2008,08,09,02,51,0.00
2008,08,09,02,52,0.00
2008,08,09,02,53,0.00
2008,08,09,02,54,0.00
2008,08,09,02,55,0.00
2008,08,09,02,56,0.00
2008,08,09,02,57,0.00
2008,08,09,02,58,0.00
2008,08,09,02,59,0.00
2008,08,09,03,00,0.00
2008,08,09,03,01,0.00
2008,08,09,03,02,0.00
2008,08,09,03,03,0.00
2008,08,09,03,04,0.00
2008,08,09,03,05,0.00
2008,08,09,03,06,0.00
2008,08,09,03,07,0.00
2008,08,09,03,08,0.00
2008,08,09,03,09,0.00
2008,08,09,03,10,0.00
2008,08,09,03,11,0.00
2008,08,09,03,12,0.00
2008,08,09,03,13,0.00
2008,08,09,03,14,0.00
2008,08,09,03,15,0.00
2008,08,09,03,16,0.00
2008,08,09,03,17,0.00
2008,08,09,03,18,0.00
2008,08,09,03,19,0.00
2008,08,09,03,20,0.00
2008,08,09,03,21,0.00
2008,08,09,03,22,0.00
2008,08,09,03,23,0.00
2008,08,09,03,24,0.00
2008,08,09,03,25,0.00
2008,08,09,03,26,0.00
2008,08,09,03,27,0.00
2008,08,09,03,28,0.00
2008,08,09,03,29,0.00
2008,08,09,03,30,0.00
2008,08,09,03,31,0.00
2008,08,09,03,32,0.00
2008,08,09,03,33,0.00
2008,08,09,03,34,0.00
2008,08,09,03,35,0.00
2008,08,09,03,36,0.00
2008,08,09,03,37,0.00
2008,08,09,03,38,0.00
2008,08,09,03,39,0.00
2008,08,09,03,40,0.00
2008,08,09,03,41,0.00
2008,08,09,03,42,0.00
2008,08,09,03,43,0.00
2008,08,09,03,44,0.00
2008,08,09,03,45,0.00
2008,08,09,03,46,0.00
2008,08,09,03,47,0.00
2008,08,09,03,48,0.00
2008,08,09,03,49,0.00
2008,08,09,03,50,0.00
2008,08,09,03,51,0.00
2008,08,09,03,52,0.00
2008,08,09,03,53,0.00
2008,08,09,03,54,0.00
2008,08,09,03,55,0.00
2008,08,09,03,56,0.00
2008,08,09,03,57,0.00
2008,08,09,03,58,0.00
2008,08,09,03,59,0.00
2008,08,09,04,00,0.00
2008,08,09,04,01,0.00
2008,08,09,04,02,0.00
2008,08,09,04,03,0.00
2008,08,09,04,04,0.00
2008,08,09,04,05,0.00
2008,08,09,04,06,0.00
2008,08,09,04,07,0.00
2008,08,09,04,08,0.00
2008,08,09,04,09,0.00
2008,08,09,04,10,0.00
2008,08,09,04,11,0.00
2008,08,09,04,12,0.00
2008,08,09,04,13,0.00
2008,08,09,04,14,0.00
2008,08,09,04,15,0.00
2008,08,09,04,16,0.00
2008,08,09,04,17,0.00
2008,08,09,04,18,0.00
2008,08,09,04,19,0.00
2008,08,09,04,20,0.00
2008,08,09,04,21,0.00
2008,08,09,04,22,0.00
2008,08,09,04,23,0.00
2008,08,09,04,24,0.00
2008,08,09,04,25,0.00
2008,08,09,04,26,0.00
2008,08,09,04,27,0.00
2008,08,09,04,28,0.00
2008,08,09,04,29,0.00
2008,08,09,04,30,0.00
2008,08,09,04,31,0.00
2008,08,09,04,32,0.00
2008,08,09,04,33,0.00
2008,08,09,04,34,0.00
2008,08,09,04,35,0.00
2008,08,09,04,36,0.00
2008,08,09,04,37,0.00
2008,08,09,04,38,0.00
2008,08,09,04,39,0.00
2008,08,09,04,40,0.00
2008,08,09,04,41,0.00
2008,08,09,04,42,0.00
2008,08,09,04,43,0.00
2008,08,09,04,44,0.00
2008,08,09,04,45,0.00
2008,08,09,04,46,0.00
2008,08,09,04,47,0.00
2008,08,09,04,48,0.00
2008,08,09,04,49,0.00
2008,08,09,04,50,0.00
2008,08,09,04,51,0.00
2008,08,09,04,52,0.00
2008,08,09,04,53,0.00
2008,08,09,04,54,0.00
2008,08,09,04,55,0.00
2008,08,09,04,56,0.00
2008,08,09,04,57,0.00
2008,08,09,04,58,0.00
2008,08,09,04,59,0.00
2008,08,09,05,00,0.00
2008,08,09,05,01,0.00
2008,08,09,05,02,0.00
2008,08,09,05,03,0.00
2008,08,09,05,04,0.00
2008,08,09,05,05,0.00
2008,08,09,05,06,0.00
2008,08,09,05,07,0.00
2008,08,09,05,08,0.00
2008,08,09,05,09,0.00
2008,08,09,05,10,0.00
2008,08,09,05,11,0.00
2008,08,09,05,12,0.00
2008,08,09,05,13,0.00
2008,08,09,05,14,0.00
2008,08,09,05,15,0.00
2008,08,09,05,16,0.00
2008,08,09,05,17,0.00
2008,08,09,05,18,0.00
2008,08,09,05,19,0.00
2008,08,09,05,20,0.00
2008,08,09,05,21,0.00
2008,08,09,05,22,0.00
2008,08,09,05,23,0.00
2008,08,09,05,24,0.00
2008,08,09,05,25,0.00
2008,08,09,05,26,0.00
2008,08,09,05,27,0.00
2008,08,09,05,28,0.00
2008,08,09,05,29,0.00
2008,08,09,05,30,0.00
2008,08,09,05,31,0.00
2008,08,09,05,32,0.00
2008,08,09,05,33,0.00
2008,08,09,05,34,0.00
2008,08,09,05,35,0.00
2008,08,09,05,36,0.00
2008,08,09,05,37,0.00
2008,08,09,05,38,0.00
2008,08,09,05,39,0.00
2008,08,09,05,40,0.00
2008,08,09,05,41,0.00
2008,08,09,05,42,0.00
2008,08,09,05,43,0.00
2008,08,09,05,44,0.00
2008,08,09,05,45,0.00
2008,08,09,05,46,0.00
2008,08,09,05,47,0.00
2008,08,09,05,48,0.00
2008,08,09,05,49,0.00
2008,08,09,05,50,0.00
2008,08,09,05,51,0.00
2008,08,09,05,52,0.00
2008,08,09,05,53,0.00
2008,08,09,05,54,0.00
2008,08,09,05,55,0.00
2008,08,09,05,56,0.00
2008,08,09,05,57,0.00
2008,08,09,05,58,0.00
2008,08,09,05,59,0.00
2008,08,09,06,00,0.00
2008,08,09,06,01,0.00
2008,08,09,06,02,0.00
2008,08,09,06,03,0.00
2008,08,09,06,04,0.00
2008,08,09,06,05,0.00
2008,08,09,06,06,0.00
2008,08,09,06,07,0.00
2008,08,09,06,08,0.00
2008,08,09,06,09,0.00
2008,08,09,06,10,0.00
2008,08,09,06,11,0.00
2008,08,09,06,12,0.00
2008,08,09,06,13,0.00
2008,08,09,06,14,0.00
2008,08,09,06,15,0.00
2008,08,09,06,16,0.00
2008,08,09,06,17,4.70
2008,08,09,06,18,5.00
2008,08,09,06,19,5.00
2008,08,09,06,20,5.00
2008,08,09,06,21,5.00
2008,08,09,06,22,5.00
2008,08,09,06,23,5.00
2008,08,09,06,24,5.00
2008,08,09,06,25,6.90
2008,08,09,06,26,7.00
2008,08,09,06,27,7.00
2008,08,09,06,28,7.00
2008,08,09,06,29,7.00
2008,08,09,06,30,7.00
2008,08,09,06,31,8.90
2008,08,09,06,32,9.00
2008,08,09,06,33,9.00
2008,08,09,06,34,9.00
2008,08,09,06,35,10.90
2008,08,09,06,36,11.00
2008,08,09,06,37,11.00
2008,08,09,06,38,11.90
2008,08,09,06,39,12.00
2008,08,09,06,40,12.00
2008,08,09,06,41,13.90
2008,08,09,06,42,14.00
2008,08,09,06,43,14.00
2008,08,09,06,44,14.00
2008,08,09,06,45,14.00
2008,08,09,06,46,15.90
2008,08,09,06,47,16.00
2008,08,09,06,48,16.00
2008,08,09,06,49,17.90
2008,08,09,06,50,18.90
2008,08,09,06,51,22.80
2008,08,09,06,52,25.80
2008,08,09,06,53,27.90
2008,08,09,06,54,29.90
2008,08,09,06,55,30.00
2008,08,09,06,56,31.90
2008,08,09,06,57,32.00
2008,08,09,06,58,32.00
2008,08,09,06,59,32.90
2008,08,09,07,00,33.00
2008,08,09,07,01,36.20
2008,08,09,07,02,39.80
2008,08,09,07,03,43.80
2008,08,09,07,04,42.10
2008,08,09,07,05,43.90
2008,08,09,07,06,46.80
2008,08,09,07,07,47.00
2008,08,09,07,08,52.60
2008,08,09,07,09,59.60
2008,08,09,07,10,64.70
2008,08,09,07,11,68.80
2008,08,09,07,12,73.70
2008,08,09,07,13,78.70
2008,08,09,07,14,82.80
2008,08,09,07,15,85.80
2008,08,09,07,16,87.90
2008,08,09,07,17,89.90
2008,08,09,07,18,86.80
2008,08,09,07,19,92.60
2008,08,09,07,20,93.00
2008,08,09,07,21,84.50
2008,08,09,07,22,77.40
2008,08,09,07,23,76.10
2008,08,09,07,24,76.00
2008,08,09,07,25,78.80
2008,08,09,07,26,82.80
2008,08,09,07,27,89.60
2008,08,09,07,28,92.80
2008,08,09,07,29,88.30
2008,08,09,07,30,89.90
2008,08,09,07,31,69.80
2008,08,09,07,32,65.00
2008,08,09,07,33,66.90
2008,08,09,07,34,68.90
2008,08,09,07,35,69.00
2008,08,09,07,36,69.90
2008,08,09,07,37,73.80
2008,08,09,07,38,76.80
2008,08,09,07,39,78.90
2008,08,09,07,40,82.80
2008,08,09,07,41,87.70
2008,08,09,07,42,132.40
2008,08,09,07,43,97.20
2008,08,09,07,44,96.90
2008,08,09,07,45,112.10
2008,08,09,07,46,102.60
2008,08,09,07,47,100.00
2008,08,09,07,48,97.60
2008,08,09,07,49,92.20
2008,08,09,07,50,91.00
2008,08,09,07,51,94.80
2008,08,09,07,52,88.40
2008,08,09,07,53,88.00
2008,08,09,07,54,89.90
2008,08,09,07,55,86.80
2008,08,09,07,56,63.30
2008,08,09,07,57,60.10
2008,08,09,07,58,60.00
2008,08,09,07,59,64.70
2008,08,09,08,00,58.40
2008,08,09,08,01,56.10
2008,08,09,08,02,70.60
2008,08,09,08,03,82.50
2008,08,09,08,04,78.10
2008,08,09,08,05,131.60
2008,08,09,08,06,161.40
2008,08,09,08,07,245.20
2008,08,09,08,08,259.40
2008,08,09,08,09,213.60
2008,08,09,08,10,252.40
2008,08,09,08,11,244.20
2008,08,09,08,12,265.70
2008,08,09,08,13,264.50
2008,08,09,08,14,288.30
2008,08,09,08,15,272.30
2008,08,09,08,16,315.40
2008,08,09,08,17,318.00
2008,08,09,08,18,322.00
2008,08,09,08,19,322.10
2008,08,09,08,20,324.80
2008,08,09,08,21,343.80
2008,08,09,08,22,345.00
2008,08,09,08,23,249.60
2008,08,09,08,24,244.00
2008,08,09,08,25,148.00
2008,08,09,08,26,142.00
2008,08,09,08,27,253.40
2008,08,09,08,28,260.00
2008,08,09,08,29,260.00
2008,08,09,08,30,183.80
2008,08,09,08,31,182.20
2008,08,09,08,32,196.20
2008,08,09,08,33,205.50
2008,08,09,08,34,230.00
2008,08,09,08,35,290.60
2008,08,09,08,36,294.00
2008,08,09,08,37,460.00
2008,08,09,08,38,527.30
2008,08,09,08,39,465.90
2008,08,09,08,40,527.60
2008,08,09,08,41,553.40
2008,08,09,08,42,522.00
2008,08,09,08,43,520.00
2008,08,09,08,44,520.00
2008,08,09,08,45,418.00
2008,08,09,08,46,394.00
2008,08,09,08,47,267.90
2008,08,09,08,48,268.80
2008,08,09,08,49,279.00
2008,08,09,08,50,254.30
2008,08,09,08,51,246.10
2008,08,09,08,52,250.00
2008,08,09,08,53,248.60
2008,08,09,08,54,252.00
2008,08,09,08,55,261.80
2008,08,09,08,56,324.70
2008,08,09,08,57,259.90
2008,08,09,08,58,238.10
2008,08,09,08,59,231.40
2008,08,09,09,00,225.30
2008,08,09,09,01,216.20
2008,08,09,09,02,202.20
2008,08,09,09,03,192.50
2008,08,09,09,04,186.40
2008,08,09,09,05,180.20
2008,08,09,09,06,176.60
2008,08,09,09,07,180.00
2008,08,09,09,08,211.00
2008,08,09,09,09,218.00
2008,08,09,09,10,218.00
2008,08,09,09,11,218.00
2008,08,09,09,12,262.40
2008,08,09,09,13,316.80
2008,08,09,09,14,379.20
2008,08,09,09,15,342.80
2008,08,09,09,16,331.60
2008,08,09,09,17,377.30
2008,08,09,09,18,380.00
2008,08,09,09,19,380.00
2008,08,09,09,20,268.80
2008,08,09,09,21,248.20
2008,08,09,09,22,238.80
2008,08,09,09,23,231.20
2008,08,09,09,24,218.80
2008,08,09,09,25,213.20
2008,08,09,09,26,213.00
2008,08,09,09,27,213.00
2008,08,09,09,28,197.90
2008,08,09,09,29,227.10
2008,08,09,09,30,268.20
2008,08,09,09,31,278.00
2008,08,09,09,32,278.00
2008,08,09,09,33,278.00
2008,08,09,09,34,247.90
2008,08,09,09,35,246.00
2008,08,09,09,36,246.00
2008,08,09,09,37,326.90
2008,08,09,09,38,359.20
2008,08,09,09,39,366.00
2008,08,09,09,40,366.00
2008,08,09,09,41,392.40
2008,08,09,09,42,348.70
2008,08,09,09,43,299.90
2008,08,09,09,44,273.00
2008,08,09,09,45,258.90
2008,08,09,09,46,244.80
2008,08,09,09,47,234.60
2008,08,09,09,48,236.40
2008,08,09,09,49,245.50
2008,08,09,09,50,250.70
2008,08,09,09,51,250.20
2008,08,09,09,52,241.20
2008,08,09,09,53,229.60
2008,08,09,09,54,216.80
2008,08,09,09,55,206.40
2008,08,09,09,56,200.20
2008,08,09,09,57,199.20
2008,08,09,09,58,193.40
2008,08,09,09,59,176.90
2008,08,09,10,00,161.60
2008,08,09,10,01,145.20
2008,08,09,10,02,132.60
2008,08,09,10,03,126.40
2008,08,09,10,04,119.40
2008,08,09,10,05,107.60
2008,08,09,10,06,97.60
2008,08,09,10,07,91.40
2008,08,09,10,08,90.80
2008,08,09,10,09,96.60
2008,08,09,10,10,97.90
2008,08,09,10,11,99.60
2008,08,09,10,12,100.00
2008,08,09,10,13,98.10
2008,08,09,10,14,97.10
2008,08,09,10,15,95.10
2008,08,09,10,16,97.80
2008,08,09,10,17,103.60
2008,08,09,10,18,109.80
2008,08,09,10,19,107.20
2008,08,09,10,20,100.40
2008,08,09,10,21,93.40
2008,08,09,10,22,85.80
2008,08,09,10,23,77.60
2008,08,09,10,24,72.20
2008,08,09,10,25,73.90
2008,08,09,10,26,78.70
2008,08,09,10,27,86.20
2008,08,09,10,28,97.40
2008,08,09,10,29,106.50
2008,08,09,10,30,108.90
2008,08,09,10,31,109.00
2008,08,09,10,32,117.50
2008,08,09,10,33,133.10
2008,08,09,10,34,141.50
2008,08,09,10,35,143.60
2008,08,09,10,36,136.80
2008,08,09,10,37,121.80
2008,08,09,10,38,111.60
2008,08,09,10,39,107.20
2008,08,09,10,40,108.60
2008,08,09,10,41,112.20
2008,08,09,10,42,115.80
2008,08,09,10,43,120.70
2008,08,09,10,44,129.50
2008,08,09,10,45,139.60
2008,08,09,10,46,156.40
2008,08,09,10,47,171.30
2008,08,09,10,48,178.60
2008,08,09,10,49,180.90
2008,08,09,10,50,179.40
2008,08,09,10,51,174.30
2008,08,09,10,52,165.50
2008,08,09,10,53,153.80
2008,08,09,10,54,137.40
2008,08,09,10,55,123.60
2008,08,09,10,56,113.00
2008,08,09,10,57,102.50
2008,08,09,10,58,93.50
2008,08,09,10,59,86.40
2008,08,09,11,00,86.00
2008,08,09,11,01,89.20
2008,08,09,11,02,90.90
2008,08,09,11,03,96.60
2008,08,09,11,04,110.00
2008,08,09,11,05,130.90
2008,08,09,11,06,147.10
2008,08,09,11,07,161.60
2008,08,09,11,08,187.40
2008,08,09,11,09,229.80
2008,08,09,11,10,292.60
2008,08,09,11,11,337.20
2008,08,09,11,12,423.40
2008,08,09,11,13,443.00
2008,08,09,11,14,443.00
2008,08,09,11,15,443.00
2008,08,09,11,16,443.00
2008,08,09,11,17,635.70
2008,08,09,11,18,647.00
2008,08,09,11,19,382.20
2008,08,09,11,20,319.20
2008,08,09,11,21,320.00
2008,08,09,11,22,486.60
2008,08,09,11,23,497.00
2008,08,09,11,24,497.00
2008,08,09,11,25,497.00
2008,08,09,11,26,517.70
2008,08,09,11,27,519.00
2008,08,09,11,28,400.60
2008,08,09,11,29,357.80
2008,08,09,11,30,357.00
2008,08,09,11,31,357.00
2008,08,09,11,32,229.00
2008,08,09,11,33,205.80
2008,08,09,11,34,194.80
2008,08,09,11,35,192.20
2008,08,09,11,36,205.60
2008,08,09,11,37,227.80
2008,08,09,11,38,236.50
2008,08,09,11,39,240.20
2008,08,09,11,40,256.10
2008,08,09,11,41,270.60
2008,08,09,11,42,270.00
2008,08,09,11,43,252.10
2008,08,09,11,44,234.20
2008,08,09,11,45,222.00
2008,08,09,11,46,228.50
2008,08,09,11,47,248.60
2008,08,09,11,48,284.90
2008,08,09,11,49,285.10
2008,08,09,11,50,286.60
2008,08,09,11,51,276.60
2008,08,09,11,52,247.80
2008,08,09,11,53,219.60
2008,08,09,11,54,187.40
2008,08,09,11,55,152.80
2008,08,09,11,56,131.20
2008,08,09,11,57,122.80
2008,08,09,11,58,122.60
2008,08,09,11,59,126.80
2008,08,09,12,00,131.70
2008,08,09,12,01,140.50
2008,08,09,12,02,153.00
2008,08,09,12,03,170.40
2008,08,09,12,04,177.20
2008,08,09,12,05,174.80
2008,08,09,12,06,175.90
2008,08,09,12,07,185.40
2008,08,09,12,08,187.60
2008,08,09,12,09,170.10
2008,08,09,12,10,143.60
2008,08,09,12,11,130.00
2008,08,09,12,12,118.20
2008,08,09,12,13,108.80
2008,08,09,12,14,99.00
2008,08,09,12,15,95.10
2008,08,09,12,16,101.60
2008,08,09,12,17,111.60
2008,08,09,12,18,118.80
2008,08,09,12,19,122.40
2008,08,09,12,20,129.60
2008,08,09,12,21,140.40
2008,08,09,12,22,157.80
2008,08,09,12,23,188.40
2008,08,09,12,24,234.50
2008,08,09,12,25,277.00
2008,08,09,12,26,323.00
2008,08,09,12,27,332.00
2008,08,09,12,28,378.10
2008,08,09,12,29,426.60
2008,08,09,12,30,438.00
2008,08,09,12,31,438.00
2008,08,09,12,32,602.70
2008,08,09,12,33,534.60
2008,08,09,12,34,470.80
2008,08,09,12,35,444.80
2008,08,09,12,36,397.40
2008,08,09,12,37,328.60
2008,08,09,12,38,293.00
2008,08,09,12,39,292.20
2008,08,09,12,40,342.90
2008,08,09,12,41,386.00
2008,08,09,12,42,419.20
2008,08,09,12,43,425.00
2008,08,09,12,44,473.00
2008,08,09,12,45,502.40
2008,08,09,12,46,568.90
2008,08,09,12,47,597.00
2008,08,09,12,48,603.00
2008,08,09,12,49,471.00
2008,08,09,12,50,388.10
2008,08,09,12,51,340.80
2008,08,09,12,52,306.80
2008,08,09,12,53,273.60
2008,08,09,12,54,248.80
2008,08,09,12,55,219.80
2008,08,09,12,56,193.30
2008,08,09,12,57,173.50
2008,08,09,12,58,156.60
2008,08,09,12,59,143.40
2008,08,09,13,00,137.40
2008,08,09,13,01,138.90
2008,08,09,13,02,154.10
2008,08,09,13,03,196.40
2008,08,09,13,04,199.00
2008,08,09,13,05,199.00
2008,08,09,13,06,385.40
2008,08,09,13,07,412.80
2008,08,09,13,08,430.40
2008,08,09,13,09,436.00
2008,08,09,13,10,601.60
2008,08,09,13,11,612.00
2008,08,09,13,12,612.00
2008,08,09,13,13,612.00
2008,08,09,13,14,612.00
2008,08,09,13,15,503.80
2008,08,09,13,16,454.60
2008,08,09,13,17,424.80
2008,08,09,13,18,400.10
2008,08,09,13,19,390.20
2008,08,09,13,20,376.80
2008,08,09,13,21,356.10
2008,08,09,13,22,322.10
2008,08,09,13,23,272.00
2008,08,09,13,24,243.40
2008,08,09,13,25,227.60
2008,08,09,13,26,221.40
2008,08,09,13,27,215.40
2008,08,09,13,28,204.60
2008,08,09,13,29,195.50
2008,08,09,13,30,192.60
2008,08,09,13,31,196.00
2008,08,09,13,32,210.20
2008,08,09,13,33,220.40
2008,08,09,13,34,224.80
2008,08,09,13,35,221.00
2008,08,09,13,36,211.50
2008,08,09,13,37,203.10
2008,08,09,13,38,198.00
2008,08,09,13,39,195.10
2008,08,09,13,40,198.80
2008,08,09,13,41,210.20
2008,08,09,13,42,228.10
2008,08,09,13,43,240.30
2008,08,09,13,44,242.90
2008,08,09,13,45,241.40
2008,08,09,13,46,246.60
2008,08,09,13,47,269.60
2008,08,09,13,48,310.70
2008,08,09,13,49,361.00
2008,08,09,13,50,388.00
2008,08,09,13,51,394.00
2008,08,09,13,52,420.40
2008,08,09,13,53,420.40
2008,08,09,13,54,417.60
2008,08,09,13,55,431.10
2008,08,09,13,56,489.40
2008,08,09,13,57,548.80
2008,08,09,13,58,540.70
2008,08,09,13,59,487.40
2008,08,09,14,00,427.00
2008,08,09,14,01,392.20
2008,08,09,14,02,356.90
2008,08,09,14,03,316.20
2008,08,09,14,04,273.40
2008,08,09,14,05,216.90
2008,08,09,14,06,176.40
2008,08,09,14,07,147.60
2008,08,09,14,08,129.10
2008,08,09,14,09,114.40
2008,08,09,14,10,94.10
2008,08,09,14,11,81.70
2008,08,09,14,12,76.30
2008,08,09,14,13,72.20
2008,08,09,14,14,65.40
2008,08,09,14,15,57.80
2008,08,09,14,16,51.30
2008,08,09,14,17,52.80
2008,08,09,14,18,59.60
2008,08,09,14,19,64.00
2008,08,09,14,20,69.70
2008,08,09,14,21,71.90
2008,08,09,14,22,67.30
2008,08,09,14,23,62.30
2008,08,09,14,24,54.50
2008,08,09,14,25,47.40
2008,08,09,14,26,41.40
2008,08,09,14,27,36.00
2008,08,09,14,28,32.20
2008,08,09,14,29,32.00
2008,08,09,14,30,32.80
2008,08,09,14,31,33.00
2008,08,09,14,32,32.10
2008,08,09,14,33,30.10
2008,08,09,14,34,28.50
2008,08,09,14,35,26.10
2008,08,09,14,36,26.00
2008,08,09,14,37,26.00
2008,08,09,14,38,26.00
2008,08,09,14,39,27.90
2008,08,09,14,40,31.50
2008,08,09,14,41,34.40
2008,08,09,14,42,39.00
2008,08,09,14,43,43.80
2008,08,09,14,44,48.70
2008,08,09,14,45,53.00
2008,08,09,14,46,59.60
2008,08,09,14,47,68.80
2008,08,09,14,48,80.40
2008,08,09,14,49,99.00
2008,08,09,14,50,118.80
2008,08,09,14,51,136.00
2008,08,09,14,52,137.00
2008,08,09,14,53,165.20
2008,08,09,14,54,177.40
2008,08,09,14,55,184.60
2008,08,09,14,56,189.70
2008,08,09,14,57,196.60
2008,08,09,14,58,204.20
2008,08,09,14,59,222.00
2008,08,09,15,00,245.10
2008,08,09,15,01,264.80
2008,08,09,15,02,284.10
2008,08,09,15,03,285.00
2008,08,09,15,04,285.00
2008,08,09,15,05,302.90
2008,08,09,15,06,307.80
2008,08,09,15,07,308.80
2008,08,09,15,08,306.20
2008,08,09,15,09,293.20
2008,08,09,15,10,266.00
2008,08,09,15,11,225.20
2008,08,09,15,12,193.80
2008,08,09,15,13,173.60
2008,08,09,15,14,155.80
2008,08,09,15,15,148.40
2008,08,09,15,16,146.40
2008,08,09,15,17,142.80
2008,08,09,15,18,139.20
2008,08,09,15,19,135.20
2008,08,09,15,20,136.80
2008,08,09,15,21,141.00
2008,08,09,15,22,142.00
2008,08,09,15,23,148.60
2008,08,09,15,24,148.20
2008,08,09,15,25,144.80
2008,08,09,15,26,140.00
2008,08,09,15,27,135.20
2008,08,09,15,28,134.10
2008,08,09,15,29,130.20
2008,08,09,15,30,130.00
2008,08,09,15,31,120.40
2008,08,09,15,32,107.60
2008,08,09,15,33,91.80
2008,08,09,15,34,79.70
2008,08,09,15,35,71.00
2008,08,09,15,36,63.40
2008,08,09,15,37,54.50
2008,08,09,15,38,53.10
2008,08,09,15,39,55.40
2008,08,09,15,40,59.50
2008,08,09,15,41,64.00
2008,08,09,15,42,66.80
2008,08,09,15,43,68.60
2008,08,09,15,44,69.90
2008,08,09,15,45,75.60
2008,08,09,15,46,80.40
2008,08,09,15,47,83.80
2008,08,09,15,48,87.20
2008,08,09,15,49,92.70
2008,08,09,15,50,96.50
2008,08,09,15,51,99.40
2008,08,09,15,52,103.80
2008,08,09,15,53,104.90
2008,08,09,15,54,106.80
2008,08,09,15,55,108.60
2008,08,09,15,56,110.90
2008,08,09,15,57,113.80
2008,08,09,15,58,120.60
2008,08,09,15,59,126.60
2008,08,09,16,00,130.80
2008,08,09,16,01,136.00
2008,08,09,16,02,141.70
2008,08,09,16,03,147.30
2008,08,09,16,04,154.60
2008,08,09,16,05,155.00
2008,08,09,16,06,149.40
2008,08,09,16,07,139.60
2008,08,09,16,08,133.40
2008,08,09,16,09,127.30
2008,08,09,16,10,123.20
2008,08,09,16,11,124.60
2008,08,09,16,12,133.80
2008,08,09,16,13,147.80
2008,08,09,16,14,160.60
2008,08,09,16,15,175.20
2008,08,09,16,16,177.90
2008,08,09,16,17,169.50
2008,08,09,16,18,160.20
2008,08,09,16,19,151.40
2008,08,09,16,20,152.60
2008,08,09,16,21,159.60
2008,08,09,16,22,164.40
2008,08,09,16,23,165.00
2008,08,09,16,24,156.50
2008,08,09,16,25,147.20
2008,08,09,16,26,136.40
2008,08,09,16,27,122.50
2008,08,09,16,28,121.00
2008,08,09,16,29,97.00
2008,08,09,16,30,76.90
2008,08,09,16,31,65.60
2008,08,09,16,32,58.40
2008,08,09,16,33,53.30
2008,08,09,16,34,51.20
2008,08,09,16,35,52.60
2008,08,09,16,36,55.80
2008,08,09,16,37,54.20
2008,08,09,16,38,50.00
2008,08,09,16,39,42.80
2008,08,09,16,40,40.10
2008,08,09,16,41,40.00
2008,08,09,16,42,46.20
2008,08,09,16,43,57.40
2008,08,09,16,44,75.00
2008,08,09,16,45,92.90
2008,08,09,16,46,111.90
2008,08,09,16,47,124.20
2008,08,09,16,48,138.30
2008,08,09,16,49,145.20
2008,08,09,16,50,148.40
2008,08,09,16,51,150.90
2008,08,09,16,52,157.20
2008,08,09,16,53,188.00
2008,08,09,16,54,202.60
2008,08,09,16,55,215.20
2008,08,09,16,56,231.20
2008,08,09,16,57,229.40
2008,08,09,16,58,231.40
2008,08,09,16,59,235.50
2008,08,09,17,00,240.00
2008,08,09,17,01,247.60
2008,08,09,17,02,248.00
2008,08,09,17,03,252.40
2008,08,09,17,04,253.00
2008,08,09,17,05,238.00
2008,08,09,17,06,223.80
2008,08,09,17,07,215.10
2008,08,09,17,08,207.60
2008,08,09,17,09,195.60
2008,08,09,17,10,177.10
2008,08,09,17,11,156.20
2008,08,09,17,12,140.90
2008,08,09,17,13,126.60
2008,08,09,17,14,115.40
2008,08,09,17,15,105.50
2008,08,09,17,16,104.10
2008,08,09,17,17,102.40
2008,08,09,17,18,98.20
2008,08,09,17,19,90.50
2008,08,09,17,20,82.10
2008,08,09,17,21,81.00
2008,08,09,17,22,67.80
2008,08,09,17,23,62.30
2008,08,09,17,24,56.70
2008,08,09,17,25,51.60
2008,08,09,17,26,51.00
2008,08,09,17,27,53.80
2008,08,09,17,28,57.50
2008,08,09,17,29,59.80
2008,08,09,17,30,60.00
2008,08,09,17,31,56.80
2008,08,09,17,32,53.20
2008,08,09,17,33,51.10
2008,08,09,17,34,47.80
2008,08,09,17,35,46.10
2008,08,09,17,36,44.20
2008,08,09,17,37,42.40
2008,08,09,17,38,39.20
2008,08,09,17,39,35.50
2008,08,09,17,40,33.40
2008,08,09,17,41,32.10
2008,08,09,17,42,32.00
2008,08,09,17,43,32.90
2008,08,09,17,44,34.80
2008,08,09,17,45,39.70
2008,08,09,17,46,52.20
2008,08,09,17,47,74.20
2008,08,09,17,48,111.40
2008,08,09,17,49,142.40
2008,08,09,17,50,163.10
2008,08,09,17,51,165.00
2008,08,09,17,52,157.80
2008,08,09,17,53,137.50
2008,08,09,17,54,116.50
2008,08,09,17,55,99.00
2008,08,09,17,56,84.80
2008,08,09,17,57,72.70
2008,08,09,17,58,63.20
2008,08,09,17,59,54.90
2008,08,09,18,00,53.20
2008,08,09,18,01,51.20
2008,08,09,18,02,52.90
2008,08,09,18,03,53.90